Location: Callao
(39.8979°N, 113.7141°W)
Time: 16:55:27
(UTC+00:00)

AO-91 - Pass Details

Date: 17 May 2021
Orbit: 453 x 808 km, 97.7° (Epoch: 19 June)

Event Time Altitude Azimuth Distance (km) Brightness Sun altitude
Rises 07:30:34 0° 4° (N) 2,797 ? -30.7°
Reaches altitude 10° 07:32:41 10° 359° (N) 1,949 ? -30.7°
Enters shadow 07:35:19 33° 333° (NNW) 1,058 ? -30.7°
